Tracking 18840 objects as of 19-November-2017
HD Live streaming from Space Station
objects crossing your sky now

SL-16 DEB

Track SL-16 DEB now!
10-day predictions


NORAD ID: 28354
Int'l Code: 2004-021C
Perigee: 849.7 km
Apogee: 1,176.3 km
Inclination: 71.0 °
Period: 105.2 minutes
Semi major axis: 7383 km
RCS: 0.0814 m2 (small)
Launch date: June 10, 2004
Source: Commonwealth of Independent States (former USSR) (CIS)
Launch site: TYURATAM MISSILE AND SPACE COMPLEX (TTMTR)

Note: This is SATELLITE DEBRIS
aabbcc
Your satellite tracking list
Your tracking list is empty




NASA's NSSDC Master Catalog

Two Line Element Set (TLE):
1 28354U 04021C   17322.60897216 +.00000015 +00000-0 +55343-4 0  9993
2 28354 070.9543 130.3493 0221203 060.1747 302.1141 13.68252384670726
Source of the keplerian elements: AFSPC